AirNav   Pilot Hours Calculator
 
 1538 users online  

K67 Oswego Municipal Airport
Oswego, Kansas, USA

GOING TO OSWEGO?


FAA INFORMATION EFFECTIVE 19 MAY 2022

Location

FAA Identifier: K67
Lat/Long: 37-09-33.8000N 095-02-29.4000W
37-09.563333N 095-02.490000W
37.1593889,-95.0415000
(estimated)
Elevation: 832 ft. / 253.6 m (surveyed)
Variation: 05E (1985)
From city: 3 miles E of OSWEGO, KS
Time zone: UTC -5 (UTC -6 during Standard Time)
Zip code: 66725

Airport Operations

Airport use: Open to the public
Activation date: 08/1961
Control tower: no
ARTCC: KANSAS CITY CENTER
FSS: WICHITA FLIGHT SERVICE STATION
NOTAMs facility: ICT (NOTAM-D service available)
Attendance: UNATNDD
Wind indicator: yes
Segmented circle: no
Beacon: white-green (lighted land airport)
Operates sunset to sunrise.

Airport Communications

CTAF: 122.9
WX AWOS-3PT at MIO (17 nm SE): 119.675 (918-544-6164)

Nearby radio navigation aids

VOR radial/distance  VOR name  Freq  Var
OSWr081/7.8OSWEGO VOR/DME117.6008E
CNUr132/38.4CHANUTE VOR/DME109.2005E

Airport Services

Fuel available: 100LL
100LL:SELF SVC FUEL AVBL 24HRS
Parking: tiedowns
Airframe service: NONE
Powerplant service: NONE
Bottled oxygen: NONE
Bulk oxygen: NONE

Runway Information

Runway 17/35

Dimensions: 2500 x 50 ft. / 762 x 15 m
Surface: asphalt, in good condition
Weight bearing capacity: 
PCN 4 /F/C/Y/U
Runway edge lights: low intensity
RUNWAY 17  RUNWAY 35
Latitude: 37-09.768857N37-09.356787N
Longitude: 095-02.490013W095-02.490013W
Elevation: 832.0 ft.826.0 ft.
Traffic pattern: leftleft
Runway heading: 175 magnetic, 180 true355 magnetic, 000 true
Markings: basic, in good conditionbasic, in good condition
Obstructions: 23 ft. rr, 660 ft. from runway, 20:1 slope to clearnone

Airport Ownership and Management from official FAA records

Ownership: Publicly-owned
Owner: CITY OF OSWEGO
703 5TH ST
OSWEGO, KS 67356
Phone 620-795-4433
Manager: CALVIN JURGENSEN
PO BOX 210
OSWEGO, KS 67356
Phone (620) 429-0297

Airport Operational Statistics

Aircraft based on the field: 4
Single engine airplanes: 4
    
Aircraft operations: avg 46/month *
73% local general aviation
27% transient general aviation
* for 12-month period ending 02 August 2018

Additional Remarks

PUBLIC PHONE.
WILDLIFE ON & INVOF ARPT.
FOR CD CTC KANSAS CITY ARTCC AT 913-254-8508.

Instrument Procedures

There are no published instrument procedures at K67.

Some nearby airports with instrument procedures:

KMIO - Miami Regional Airport (17 nm SE)
KPTS - Atkinson Municipal Airport (23 nm NE)
KPPF - Tri-City Airport (24 nm NW)
KCFV - Coffeyville Municipal Airport (26 nm W)
KJLN - Joplin Regional Airport (26 nm E)
 
Loc | Ops | Rwys | IFR | FBO | Links
Com | Nav | Svcs | Stats | Notes
Area around K67 (Oswego Municipal Airport)
 
Road maps at: MapQuest Bing Google
 
Aerial photo
No photo
 
Sectional chart

 
Airport distance calculator
Flying to Oswego Municipal Airport? Find the distance to fly.

From to K67

Sunrise and sunset
Times for 23-May-2022
 Local
(UTC-5)
 Zulu
(UTC)
Morning civil twilight05:3710:37
Sunrise06:0711:07
Sunset20:2701:27
Evening civil twilight20:5701:57

Current date and time
Zulu (UTC)  23-May-2022 17:05:28
Local (UTC-5)  23-May-2022 12:05:28
 
METAR
KMIO 
17nm SE 
231655Z AUTO 29006KT 10SM FEW033 OVC043 16/10 A3020 RMK AO2 LTG DSNT S
KPTS 
23nm NE 
231655Z AUTO 10SM 15/09 A3020 RMK AO2 LTG DSNT S T01540087
KPPF 
24nm NW 
231652Z AUTO VRB05KT 10SM BKN050 17/09 A3020 RMK AO2 SLP223 T01670089
KCFV 
26nm W 
231652Z AUTO 11007KT 10SM SCT028 BKN048 OVC065 17/10 A3018 RMK AO2 SLP219 T01670100
KJLN 
26nm E 
231653Z 10008KT 10SM OVC045 16/09 A3021 RMK AO2 SLP227 T01560089
TAF
KJLN 
26nm E 
231501Z 2315/2412 07010G18KT P6SM OVC050 FM232200 10007KT P6SM BKN045 FM240600 10005KT P6SM BKN045 PROB30 2407/2410 4SM TSRA BR OVC025CB FM241000 12007KT 6SM SHRA BR OVC040
NOTAMs
Click for the latest NOTAMs
NOTAMs are issued by the DoD/FAA and will open in a separate window not controlled by AirNav.

 

 
 

FBO, Fuel Providers, and Aircraft Ground Support

  
 Business Name 
 
 Contact 
 
 Services / Description 
 
Fuel Prices
 
Comments
  
Oswego Municipal Airport 620-795-4433
620-795-2565
[web site]
[email]
Aviation fuel, Aircraft parking (ramp or tiedown), Hangar leasing / sales

More info about Oswego Municipal Airport
independent
100LL
SS $5.43 
 Updated 19-May-2022
 
   write
SS=Self service
Update Fuel Prices
 

Would you like to see your business listed on this page?

 If your business provides an interesting product or service to pilots, flight crews, aircraft, or users of the Oswego Municipal Airport, you should consider listing it here.  To start the listing process, click on the button below
 
Add a business
 

Other Pages about Oswego Municipal Airport

Update a link
 
Copyright © AirNav, LLC. All rights reserved. Privacy Policy  Contact